FW1036 Weather Reports


Display with metric or nautical units.
time (UTC)temp
F
wind
direction
speed
MPH
gust
MPH
rain 1hr
in
rain 24hr
in
rain mn
in
humidity
%
barometer
mb
20260506073012 40 350 4.0 15.0 0.00 0.00 0.00 70 1008.2
20260506071511 40 355 6.0 14.0 0.00 0.00 0.00 68 1007.9
20260506061507 41 5 6.0 13.0 0.00 0.00 0.00 65 1007.3
20260506044601 40 11 5.0 10.0 0.00 0.00 0.00 74 1007.6
20260506043101 40 5 6.0 11.0 0.00 0.00 0.00 73 1007.7
20260506041556 40 10 7.0 11.0 0.00 0.00 0.00 76 1007.5
20260506040050 40 20 7.0 13.0 0.00 0.00 0.00 80 1007.1
20260506034553 41 360 4.0 10.0 0.00 0.00 0.00 80 1007.2
20260506033042 44 331 6.0 13.0 0.00 0.00 0.00 72 1007.0
20260506031540 46 251 2.0 4.0 0.00 0.00 0.00 65 1006.6
20260506030039 46 238 1.0 3.0 0.00 0.00 0.00 64 1006.6
20260506024538 47 238 0.0 3.0 0.00 0.00 0.00 63 1006.9
20260506023036 48 242 2.0 4.0 0.00 0.00 0.00 61 1006.6
20260506021544 49 230 3.0 5.0 0.00 0.00 0.00 59 1006.5
20260506020034 50 222 3.0 7.0 0.00 0.00 0.00 58 1006.4
20260506014532 50 225 4.0 7.0 0.00 0.00 0.00 59 1006.2
20260506013033 51 221 2.0 5.0 0.00 0.00 0.00 60 1006.1
20260506011548 50 194 1.0 4.0 0.00 0.00 0.00 65 1006.0
20260506010029 49 141 0.0 2.0 0.00 0.00 0.00 77 1006.0
20260506004539 49 141 0.0 2.0 0.00 0.00 0.00 77 1005.9
20260506003030 49 141 0.0 3.0 0.00 0.00 0.00 77 1005.8
20260506001527 50 141 2.0 3.0 0.00 0.00 0.00 76 1005.7
20260506000026 50 38 0.0 0.0 0.00 0.00 0.00 74 1005.4
20260505234528 51 38 1.0 3.0 0.00 0.00 0.00 73 1005.2
20260505233031 51 38 0.0 3.0 0.00 0.00 0.00 72 1005.1
20260505231531 51 38 3.0 11.0 0.00 0.00 0.00 70 1005.1
20260505230026 56 355 1.0 11.0 0.00 0.00 0.00 47 1005.1
20260505224522 56 238 3.0 9.0 0.00 0.00 0.00 45 1005.0
20260505223020 56 217 2.0 7.0 0.00 0.00 0.00 64 1005.1
20260505221519 56 223 3.0 9.0 0.00 0.00 0.00 65 1005.1
20260505220040 56 230 6.0 10.0 0.00 0.00 0.00 64 1005.0
20260505214525 56 209 4.0 14.0 0.00 0.00 0.00 65 1005.0
20260505213021 56 242 4.0 14.0 0.00 0.00 0.00 66 1005.2
20260505211517 56 155 5.0 11.0 0.00 0.00 0.00 65 1005.1
20260505210017 56 227 4.0 9.0 0.00 0.00 0.00 67 1004.9
20260505204518 55 225 2.0 11.0 0.00 0.00 0.00 66 1005.2
20260505203014 56 192 6.0 11.0 0.00 0.00 0.00 64 1005.4
20260505201517 55 205 5.0 12.0 0.00 0.00 0.00 64 1005.2
20260505200013 55 227 6.0 10.0 0.00 0.00 0.00 66 1005.3
20260505194519 54 240 5.0 10.0 0.00 0.00 0.00 66 1005.4
20260505193014 54 169 4.0 11.0 0.00 0.00 0.00 66 1005.5
20260505191612 54 165 4.0 11.0 0.00 0.00 0.00 66 1005.5
20260505190010 54 171 3.0 15.0 0.00 0.00 0.00 67 1005.3
20260505184510 53 172 8.0 15.0 0.00 0.00 0.00 66 1005.2
20260505183007 53 209 4.0 12.0 0.00 0.00 0.00 66 1005.3
20260505181507 53 200 4.0 11.0 0.00 0.00 0.00 68 1005.1
20260505180006 52 203 4.0 10.0 0.00 0.00 0.00 66 1005.0
20260505174505 52 196 4.0 9.0 0.00 0.00 0.00 64 1005.1
20260505173005 52 162 6.0 10.0 0.00 0.00 0.00 66 1004.8
20260505171503 52 190 4.0 10.0 0.00 0.00 0.00 64 1005.0
20260505170003 52 207 2.0 8.0 0.00 0.00 0.00 65 1004.9
20260505164501 51 217 2.0 8.0 0.00 0.00 0.00 63 1004.9
20260505163000 51 176 1.0 7.0 0.00 0.00 0.00 65 1004.8
20260505161605 51 232 4.0 7.0 0.00 0.00 0.00 63 1005.0
20260505153109 49 203 0.0 5.0 0.00 0.00 0.00 66 1005.0
20260505151555 49 238 1.0 3.0 0.00 0.00 0.00 65 1004.9
20260505124547 48 333 5.0 10.0 0.00 0.00 0.00 64 1002.5
20260505123041 48 339 3.0 10.0 0.00 0.00 0.00 63 1002.4
20260505121538 49 331 2.0 9.0 0.00 0.00 0.00 64 1002.4
20260505120047 47 340 3.0 8.0 0.00 0.00 0.00 65 1002.2
20260505114535 47 5 6.0 10.0 0.00 0.00 0.00 66 1002.1
20260505113035 47 15 6.0 10.0 0.00 0.00 0.00 67 1002.0
20260505111531 46 11 4.0 8.0 0.00 0.00 0.00 67 1001.7
20260505101520 46 9 6.0 10.0 0.00 0.00 0.00 69 1000.0
20260505100018 46 338 8.0 13.0 0.00 0.00 0.00 68 999.7
20260505094518 46 5 7.0 12.0 0.00 0.00 0.00 69 999.6
20260505093014 47 11 8.0 14.0 0.00 0.00 0.00 69 999.4
20260505091514 47 311 9.0 14.0 0.00 0.00 0.00 71 999.3
20260505090009 46 5 7.0 16.0 0.00 0.00 0.00 75 999.1
20260505084520 46 5 8.0 16.0 0.00 0.00 0.00 79 998.9
20260505083003 47 343 6.0 15.0 0.00 0.00 0.00 82 998.3
20260505081600 47 355 8.0 11.0 0.00 0.00 0.00 82 997.9